QPF
0.00 0.00 0.00 0.00 0.00 0.00 0.00 0.00 0.00 0.00 0.00 0.00 0.00 0.00 0.00 0.00 0.01 0.01 0.01 0.01 0.01 0.00 0.00 0.00 0.00 0.00 0.00 0.00 0.00 0.00 0.00 0.00 0.00 0.00 0.00 0.00 0.00 0.01 0.02 0.01 0.01 0.01 0.03
0.00 0.00 0.00 0.00 0.00 0.00 0.00 0.00 0.00 0.00 0.00 0.00 0.00 0.00 0.00 0.00 0.00 0.01 0.01 0.02 0.01 0.00 0.00 0.00 0.00 0.00 0.00 0.00 0.00 0.00 0.00 0.00 0.00 0.00 0.00 0.00 0.00 0.01 0.02 0.02 0.01 0.02 0.03
0.00 0.00 0.00 0.00 0.00 0.00 0.00 0.00 0.00 0.00 0.00 0.00 0.00 0.00 0.00 0.00 0.00 0.01 0.01 0.02 0.02 0.00 0.00 0.00 0.00 0.00 0.00 0.00 0.00 0.00 0.00 0.00 0.00 0.00 0.00 0.00 0.01 0.01 0.01 0.02 0.02 0.03 0.03
0.00 0.00 0.00 0.00 0.00 0.00 0.00 0.00 0.00 0.00 0.00 0.00 0.00 0.00 0.00 0.00 0.00 0.01 0.02 0.02 0.02 0.00 0.00 0.00 0.00 0.00 0.00 0.00 0.00 0.00 0.00 0.00 0.00 0.00 0.00 0.01 0.01 0.01 0.01 0.02 0.02 0.03 0.04
0.00 0.00 0.00 0.00 0.00 0.00 0.00 0.00 0.00 0.00 0.00 0.00 0.00 0.00 0.00 0.00 0.00 0.01 0.03 0.02 0.01 0.00 0.00 0.00 0.00 0.00 0.00 0.00 0.00 0.00 0.00 0.00 0.00 0.01 0.00 0.01 0.01 0.01 0.02 0.03 0.02 0.03 0.04
0.00 0.00 0.00 0.00 0.00 0.00 0.00 0.00 0.00 0.00 0.00 0.00 0.00 0.00 0.00 0.00 0.00 0.01 0.03 0.02 0.01 0.00 0.00 0.00 0.00 0.00 0.00 0.00 0.00 0.00 0.00 0.00 0.00 0.01 0.01 0.01 0.01 0.01 0.02 0.03 0.04 0.04 0.03
0.00 0.00 0.00 0.00 0.00 0.00 0.00 0.00 0.00 0.00 0.00 0.00 0.00 0.00 0.00 0.00 0.01 0.02 0.03 0.02 0.00 0.00 0.00 0.00 0.00 0.00 0.00 0.00 0.00 0.00 0.00 0.00 0.01 0.01 0.01 0.01 0.01 0.01 0.02 0.03 0.04 0.05 0.04
0.00 0.00 0.00 0.00 0.00 0.00 0.00 0.00 0.00 0.00 0.00 0.00 0.00 0.00 0.00 0.00 0.00 0.01 0.02 0.01 0.00 0.00 0.00 0.00 0.00 0.00 0.00 0.00 0.00 0.00 0.00 0.00 0.00 0.01 0.01 0.01 0.01 0.00 0.01 0.03 0.05 0.07 0.07
0.00 0.00 0.00 0.00 0.00 0.00 0.00 0.00 0.00 0.00 0.00 0.00 0.00 0.00 0.00 0.00 0.00 0.01 0.02 0.01 0.00 0.00 0.00 0.00 0.00 0.00 0.00 0.00 0.00 0.00 0.01 0.01 0.01 0.01 0.02 0.01 0.01 0.01 0.01 0.02 0.04 0.07 0.08
0.00 0.00 0.00 0.00 0.00 0.00 0.00 0.00 0.00 0.00 0.00 0.00 0.00 0.00 0.00 0.00 0.00 0.00 0.01 0.01 0.00 0.00 0.00 0.00 0.00 0.00 0.01 0.01 0.01 0.01 0.02 0.02 0.02 0.02 0.02 0.01 0.01 0.01 0.01 0.02 0.03 0.07 0.08
0.00 0.00 0.00 0.00 0.00 0.00 0.00 0.00 0.00 0.00 0.00 0.00 0.00 0.00 0.00 0.00 0.00 0.00 0.00 0.01 0.01 0.00 0.00 0.00 0.00 0.00 0.01 0.01 0.01 0.02 0.02 0.03 0.02 0.02 0.01 0.01 0.01 0.01 0.01 0.01 0.03 0.06 0.08
0.00 0.00 0.00 0.00 0.00 0.00 0.00 0.00 0.00 0.00 0.00 0.00 0.00 0.00 0.00 0.00 0.00 0.00 0.00 0.00 0.01 0.01 0.00 0.00 0.00 0.00 0.00 0.01 0.01 0.02 0.03 0.03 0.02 0.02 0.02 0.02 0.02 0.01 0.02 0.02 0.02 0.04 0.06
0.00 0.00 0.00 0.00 0.00 0.00 0.00 0.00 0.00 0.00 0.00 0.00 0.00 0.00 0.00 0.00 0.00 0.00 0.00 0.00 0.00 0.01 0.00 0.00 0.00 0.00 0.00 0.01 0.01 0.02 0.03 0.02 0.02 0.03 0.02 0.02 0.02 0.02 0.02 0.03 0.04 0.04 0.06
0.00 0.00 0.00 0.00 0.00 0.00 0.00 0.00 0.00 0.00 0.00 0.00 0.00 0.00 0.00 0.00 0.00 0.00 0.00 0.00 0.00 0.00 0.01 0.01 0.00 0.00 0.00 0.01 0.01 0.01 0.02 0.03 0.03 0.03 0.03 0.03 0.03 0.03 0.03 0.04 0.04 0.05 0.06
0.00 0.00 0.00 0.00 0.00 0.00 0.00 0.00 0.00 0.00 0.00 0.00 0.00 0.00 0.00 0.00 0.00 0.00 0.00 0.00 0.00 0.00 0.00 0.01 0.01 0.01 0.01 0.01 0.01 0.01 0.01 0.01 0.02 0.03 0.04 0.04 0.04 0.04 0.04 0.05 0.05 0.06 0.08
0.00 0.00 0.00 0.00 0.00 0.00 0.00 0.00 0.00 0.00 0.00 0.00 0.00 0.00 0.00 0.00 0.00 0.00 0.00 0.00 0.00 0.00 0.00 0.00 0.00 0.01 0.01 0.01 0.01 0.01 0.01 0.01 0.02 0.02 0.03 0.04 0.05 0.05 0.06 0.07 0.07 0.08 0.09
0.00 0.00 0.00 0.00 0.00 0.00 0.00 0.00 0.00 0.00 0.00 0.00 0.00 0.00 0.00 0.00 0.00 0.00 0.00 0.00 0.00 0.00 0.00 0.00 0.00 0.00 0.01 0.01 0.01 0.01 0.01 0.01 0.02 0.03 0.03 0.04 0.04 0.06 0.08 0.09 0.10 0.10 0.10
0.00 0.00 0.00 0.00 0.00 0.00 0.00 0.00 0.00 0.00 0.00 0.00 0.00 0.00 0.00 0.00 0.00 0.00 0.00 0.00 0.00 0.00 0.00 0.00 0.01 0.01 0.01 0.01 0.01 0.01 0.01 0.01 0.01 0.03 0.03 0.04 0.05 0.07 0.08 0.10 0.11 0.11 0.11
0.00 0.00 0.00 0.00 0.00 0.00 0.00 0.00 0.00 0.00 0.00 0.00 0.00 0.00 0.00 0.00 0.00 0.00 0.00 0.00 0.00 0.00 0.00 0.00 0.01 0.01 0.01 0.01 0.02 0.01 0.01 0.01 0.01 0.03 0.04 0.05 0.05 0.06 0.08 0.09 0.11 0.13 0.13
0.00 0.00 0.00 0.00 0.00 0.00 0.00 0.00 0.00 0.00 0.00 0.00 0.00 0.00 0.00 0.00 0.00 0.00 0.00 0.00 0.00 0.00 0.00 0.00 0.00 0.00 0.01 0.01 0.01 0.01 0.01 0.01 0.01 0.02 0.03 0.04 0.04 0.06 0.06 0.08 0.11 0.14 0.15
0.00 0.00 0.00 0.00 0.00 0.00 0.00 0.00 0.00 0.00 0.00 0.00 0.00 0.00 0.00 0.00 0.00 0.00 0.00 0.00 0.00 0.00 0.00 0.01 0.00 0.00 0.00 0.00 0.01 0.01 0.01 0.01 0.01 0.02 0.03 0.03 0.04 0.05 0.06 0.08 0.10 0.14 0.16
0.00 0.00 0.00 0.00 0.00 0.00 0.00 0.00 0.00 0.00 0.00 0.00 0.00 0.00 0.00 0.00 0.00 0.00 0.00 0.00 0.00 0.00 0.01 0.01 0.01 0.01 0.00 0.01 0.01 0.02 0.02 0.02 0.02 0.02 0.02 0.03 0.04 0.05 0.06 0.09 0.11 0.14 0.17
0.00 0.00 0.00 0.00 0.00 0.00 0.00 0.00 0.00 0.00 0.00 0.00 0.00 0.00 0.00 0.00 0.00 0.00 0.00 0.00 0.00 0.00 0.01 0.01 0.01 0.01 0.01 0.01 0.01 0.02 0.02 0.03 0.03 0.03 0.03 0.04 0.05 0.06 0.07 0.09 0.11 0.12 0.14
0.00 0.00 0.00 0.00 0.00 0.00 0.00 0.00 0.00 0.00 0.00 0.00 0.00 0.00 0.00 0.00 0.00 0.00 0.00 0.00 0.00 0.00 0.01 0.01 0.01 0.01 0.01 0.01 0.01 0.01 0.02 0.03 0.03 0.03 0.03 0.04 0.04 0.05 0.07 0.08 0.10 0.11 0.12
0.00 0.00 0.00 0.00 0.00 0.00 0.00 0.00 0.00 0.00 0.00 0.00 0.00 0.00 0.00 0.00 0.00 0.00 0.00 0.00 0.00 0.00 0.01 0.01 0.01 0.01 0.01 0.01 0.01 0.01 0.02 0.02 0.02 0.03 0.03 0.03 0.04 0.04 0.06 0.07 0.09 0.12 0.13
0.00 0.00 0.00 0.00 0.00 0.00 0.00 0.00 0.00 0.00 0.00 0.00 0.00 0.00 0.00 0.00 0.00 0.00 0.00 0.00 0.00 0.00 0.00 0.01 0.01 0.01 0.01 0.01 0.01 0.01 0.02 0.02 0.02 0.02 0.03 0.03 0.03 0.04 0.06 0.08 0.10 0.11 0.14
MSLP
1021.83 1022.10 1022.36 1022.59 1022.77 1022.89 1022.93 1022.90 1022.81 1022.69 1022.53 1022.37 1022.20 1022.04 1021.89 1021.76 1021.65 1021.54 1021.45 1021.37 1021.30 1021.22 1021.15 1021.06 1020.97 1020.86 1020.73 1020.57 1020.39 1020.18 1019.93 1019.63 1019.30 1018.91 1018.50 1018.06 1017.61 1017.18 1016.78 1016.44 1016.16 1015.95 1015.80
1022.29 1022.53 1022.77 1023.00 1023.19 1023.31 1023.37 1023.37 1023.30 1023.19 1023.04 1022.88 1022.71 1022.54 1022.39 1022.26 1022.15 1022.05 1021.97 1021.88 1021.79 1021.69 1021.57 1021.43 1021.28 1021.11 1020.93 1020.74 1020.54 1020.32 1020.08 1019.80 1019.50 1019.14 1018.75 1018.31 1017.86 1017.40 1016.96 1016.56 1016.21 1015.93 1015.71
1022.70 1022.93 1023.15 1023.36 1023.54 1023.67 1023.74 1023.74 1023.69 1023.59 1023.46 1023.30 1023.14 1022.98 1022.84 1022.72 1022.62 1022.54 1022.46 1022.38 1022.28 1022.16 1022.01 1021.84 1021.65 1021.44 1021.22 1021.00 1020.79 1020.57 1020.34 1020.09 1019.80 1019.47 1019.09 1018.66 1018.19 1017.70 1017.21 1016.74 1016.32 1015.95 1015.64
1023.03 1023.25 1023.46 1023.66 1023.82 1023.94 1024.00 1024.02 1023.98 1023.90 1023.78 1023.64 1023.49 1023.35 1023.23 1023.12 1023.04 1022.96 1022.89 1022.81 1022.70 1022.57 1022.41 1022.22 1022.00 1021.77 1021.53 1021.30 1021.08 1020.86 1020.64 1020.41 1020.14 1019.83 1019.45 1019.02 1018.54 1018.01 1017.48 1016.94 1016.44 1015.98 1015.59
1023.24 1023.46 1023.67 1023.85 1024.00 1024.10 1024.17 1024.19 1024.17 1024.11 1024.02 1023.90 1023.78 1023.65 1023.54 1023.45 1023.36 1023.29 1023.21 1023.13 1023.01 1022.87 1022.70 1022.49 1022.26 1022.02 1021.78 1021.54 1021.32 1021.10 1020.89 1020.66 1020.40 1020.09 1019.72 1019.29 1018.79 1018.24 1017.67 1017.08 1016.51 1015.98 1015.50
1023.30 1023.54 1023.75 1023.92 1024.06 1024.17 1024.24 1024.28 1024.28 1024.24 1024.18 1024.09 1023.99 1023.88 1023.78 1023.68 1023.59 1023.50 1023.40 1023.29 1023.17 1023.01 1022.82 1022.61 1022.37 1022.13 1021.88 1021.64 1021.41 1021.20 1020.98 1020.75 1020.48 1020.17 1019.80 1019.36 1018.86 1018.30 1017.71 1017.09 1016.49 1015.90 1015.36
1023.20 1023.47 1023.69 1023.87 1024.02 1024.14 1024.23 1024.29 1024.32 1024.32 1024.29 1024.23 1024.14 1024.04 1023.93 1023.82 1023.69 1023.57 1023.44 1023.30 1023.14 1022.96 1022.76 1022.53 1022.29 1022.05 1021.80 1021.56 1021.32 1021.09 1020.86 1020.61 1020.33 1020.01 1019.63 1019.19 1018.70 1018.15 1017.56 1016.94 1016.33 1015.73 1015.15
1022.96 1023.26 1023.51 1023.71 1023.88 1024.03 1024.14 1024.24 1024.30 1024.34 1024.34 1024.30 1024.23 1024.12 1023.99 1023.85 1023.68 1023.51 1023.33 1023.14 1022.94 1022.74 1022.51 1022.28 1022.04 1021.79 1021.53 1021.28 1021.03 1020.78 1020.52 1020.25 1019.94 1019.60 1019.22 1018.78 1018.30 1017.77 1017.21 1016.63 1016.04 1015.45 1014.88
1022.60 1022.95 1023.23 1023.48 1023.68 1023.86 1024.01 1024.14 1024.25 1024.31 1024.34 1024.32 1024.24 1024.12 1023.96 1023.77 1023.56 1023.33 1023.09 1022.86 1022.62 1022.38 1022.14 1021.90 1021.66 1021.41 1021.15 1020.88 1020.61 1020.33 1020.03 1019.72 1019.38 1019.02 1018.62 1018.19 1017.73 1017.24 1016.72 1016.19 1015.64 1015.09 1014.54
1022.16 1022.57 1022.90 1023.19 1023.44 1023.66 1023.85 1024.02 1024.15 1024.24 1024.28 1024.26 1024.18 1024.03 1023.84 1023.60 1023.33 1023.05 1022.76 1022.48 1022.21 1021.96 1021.71 1021.47 1021.22 1020.97 1020.71 1020.43 1020.14 1019.82 1019.48 1019.12 1018.74 1018.35 1017.93 1017.50 1017.05 1016.60 1016.13 1015.66 1015.17 1014.67 1014.15
1021.70 1022.16 1022.55 1022.88 1023.17 1023.43 1023.66 1023.86 1024.01 1024.12 1024.16 1024.13 1024.02 1023.85 1023.62 1023.33 1023.02 1022.69 1022.37 1022.06 1021.78 1021.51 1021.26 1021.03 1020.79 1020.54 1020.28 1019.99 1019.67 1019.31 1018.93 1018.52 1018.09 1017.66 1017.21 1016.77 1016.34 1015.91 1015.48 1015.06 1014.62 1014.17 1013.69
1021.23 1021.74 1022.18 1022.56 1022.90 1023.19 1023.44 1023.65 1023.81 1023.91 1023.94 1023.90 1023.77 1023.56 1023.30 1022.98 1022.64 1022.29 1021.94 1021.62 1021.33 1021.07 1020.84 1020.61 1020.39 1020.15 1019.88 1019.58 1019.23 1018.84 1018.41 1017.95 1017.47 1016.98 1016.50 1016.04 1015.60 1015.18 1014.78 1014.39 1013.99 1013.57 1013.13
1020.75 1021.31 1021.80 1022.22 1022.58 1022.90 1023.16 1023.38 1023.53 1023.62 1023.63 1023.56 1023.40 1023.18 1022.89 1022.55 1022.19 1021.83 1021.49 1021.17 1020.89 1020.64 1020.42 1020.21 1020.00 1019.77 1019.50 1019.18 1018.81 1018.38 1017.90 1017.38 1016.85 1016.31 1015.78 1015.28 1014.82 1014.39 1013.99 1013.60 1013.22 1012.83 1012.40
1020.26 1020.86 1021.37 1021.82 1022.21 1022.54 1022.80 1023.01 1023.15 1023.21 1023.20 1023.11 1022.93 1022.69 1022.39 1022.05 1021.69 1021.33 1020.99 1020.69 1020.42 1020.19 1019.98 1019.79 1019.58 1019.35 1019.07 1018.73 1018.33 1017.86 1017.34 1016.77 1016.18 1015.59 1015.01 1014.46 1013.95 1013.49 1013.07 1012.67 1012.29 1011.89 1011.47
1019.72 1020.34 1020.88 1021.35 1021.75 1022.08 1022.34 1022.53 1022.65 1022.70 1022.67 1022.55 1022.37 1022.12 1021.81 1021.47 1021.12 1020.78 1020.46 1020.16 1019.90 1019.68 1019.47 1019.27 1019.05 1018.81 1018.51 1018.15 1017.71 1017.21 1016.65 1016.04 1015.40 1014.75 1014.12 1013.51 1012.96 1012.45 1011.99 1011.56 1011.15 1010.75 1010.32
1019.10 1019.73 1020.29 1020.77 1021.17 1021.50 1021.76 1021.95 1022.06 1022.09 1022.04 1021.92 1021.73 1021.47 1021.17 1020.85 1020.50 1020.17 1019.85 1019.56 1019.29 1019.05 1018.83 1018.61 1018.37 1018.10 1017.77 1017.38 1016.92 1016.38 1015.79 1015.14 1014.46 1013.76 1013.08 1012.43 1011.82 1011.26 1010.75 1010.28 1009.83 1009.41 1008.97
1018.38 1019.02 1019.59 1020.08 1020.49 1020.83 1021.09 1021.28 1021.38 1021.41 1021.36 1021.24 1021.04 1020.79 1020.50 1020.18 1019.84 1019.50 1019.17 1018.86 1018.57 1018.31 1018.05 1017.79 1017.51 1017.20 1016.84 1016.42 1015.93 1015.38 1014.76 1014.08 1013.38 1012.65 1011.93 1011.24 1010.58 1009.97 1009.40 1008.88 1008.40 1007.95 1007.50
1017.58 1018.23 1018.81 1019.31 1019.74 1020.09 1020.37 1020.56 1020.67 1020.70 1020.65 1020.53 1020.34 1020.10 1019.80 1019.47 1019.13 1018.77 1018.42 1018.08 1017.75 1017.44 1017.13 1016.82 1016.50 1016.15 1015.76 1015.31 1014.81 1014.24 1013.61 1012.93 1012.21 1011.47 1010.73 1010.00 1009.30 1008.65 1008.04 1007.47 1006.95 1006.47 1006.02
1016.74 1017.39 1017.98 1018.51 1018.96 1019.33 1019.62 1019.83 1019.96 1020.00 1019.96 1019.84 1019.65 1019.40 1019.09 1018.75 1018.38 1017.99 1017.60 1017.22 1016.84 1016.48 1016.12 1015.76 1015.39 1015.01 1014.59 1014.12 1013.61 1013.05 1012.42 1011.75 1011.04 1010.30 1009.55 1008.80 1008.07 1007.38 1006.73 1006.13 1005.57 1005.07 1004.60
1015.88 1016.54 1017.15 1017.70 1018.18 1018.58 1018.90 1019.14 1019.28 1019.33 1019.29 1019.16 1018.96 1018.69 1018.37 1018.00 1017.59 1017.17 1016.74 1016.31 1015.88 1015.47 1015.06 1014.66 1014.26 1013.84 1013.41 1012.94 1012.43 1011.87 1011.27 1010.61 1009.91 1009.18 1008.43 1007.68 1006.93 1006.21 1005.53 1004.90 1004.31 1003.78 1003.30
1015.04 1015.72 1016.35 1016.93 1017.44 1017.87 1018.22 1018.47 1018.62 1018.67 1018.63 1018.49 1018.27 1017.97 1017.61 1017.21 1016.77 1016.30 1015.83 1015.36 1014.90 1014.45 1014.01 1013.57 1013.15 1012.72 1012.27 1011.80 1011.30 1010.75 1010.16 1009.52 1008.84 1008.12 1007.37 1006.61 1005.86 1005.13 1004.42 1003.76 1003.16 1002.61 1002.12
1014.25 1014.93 1015.59 1016.19 1016.73 1017.19 1017.56 1017.82 1017.97 1018.02 1017.96 1017.79 1017.54 1017.21 1016.81 1016.37 1015.89 1015.40 1014.90 1014.40 1013.91 1013.44 1012.98 1012.53 1012.09 1011.65 1011.19 1010.71 1010.20 1009.66 1009.06 1008.43 1007.75 1007.03 1006.29 1005.53 1004.77 1004.03 1003.31 1002.65 1002.03 1001.47 1000.98
1013.46 1014.16 1014.83 1015.46 1016.03 1016.50 1016.88 1017.14 1017.29 1017.32 1017.23 1017.03 1016.74 1016.37 1015.94 1015.46 1014.96 1014.45 1013.93 1013.43 1012.93 1012.45 1011.99 1011.53 1011.07 1010.60 1010.12 1009.61 1009.07 1008.49 1007.87 1007.21 1006.51 1005.78 1005.02 1004.26 1003.50 1002.77 1002.06 1001.40 1000.80 1000.26 999.79
1012.66 1013.36 1014.05 1014.69 1015.27 1015.75 1016.13 1016.39 1016.52 1016.52 1016.40 1016.17 1015.84 1015.44 1014.98 1014.49 1013.98 1013.47 1012.96 1012.46 1011.98 1011.50 1011.02 1010.54 1010.05 1009.54 1009.00 1008.42 1007.80 1007.14 1006.45 1005.72 1004.96 1004.19 1003.42 1002.65 1001.90 1001.19 1000.51 999.90 999.34 998.84 998.42
1011.79 1012.49 1013.18 1013.83 1014.42 1014.90 1015.27 1015.52 1015.63 1015.60 1015.46 1015.20 1014.85 1014.43 1013.97 1013.48 1012.98 1012.49 1012.00 1011.52 1011.05 1010.57 1010.07 1009.55 1009.00 1008.40 1007.75 1007.05 1006.30 1005.51 1004.69 1003.85 1003.00 1002.17 1001.35 1000.58 999.85 999.18 998.57 998.03 997.56 997.16 996.83
1010.82 1011.52 1012.21 1012.86 1013.44 1013.93 1014.29 1014.53 1014.62 1014.58 1014.41 1014.14 1013.79 1013.38 1012.93 1012.47 1012.00 1011.54 1011.09 1010.63 1010.16 1009.67 1009.13 1008.54 1007.88 1007.15 1006.34 1005.46 1004.53 1003.55 1002.56 1001.56 1000.59 999.67 998.81 998.02 997.33 996.73 996.22 995.80 995.46 995.20 995.02
Thickness
5710 5709 5707 5705 5704 5703 5701 5700 5698 5697 5696 5694 5692 5691 5688 5686 5685 5684 5682 5681 5680 5679 5678 5677 5677 5676 5675 5675 5674 5673 5672 5671 5670 5674 5677 5680 5683 5685 5687 5689 5691 5693 5696
5708 5707 5705 5703 5702 5700 5698 5697 5696 5695 5693 5691 5690 5687 5685 5684 5682 5680 5679 5679 5677 5676 5675 5675 5674 5674 5673 5672 5671 5670 5670 5669 5668 5669 5673 5675 5677 5679 5681 5684 5686 5688 5690
5706 5704 5702 5700 5698 5697 5695 5694 5693 5691 5689 5688 5686 5683 5682 5680 5679 5677 5676 5675 5674 5673 5672 5671 5670 5670 5669 5669 5668 5667 5666 5666 5665 5664 5666 5669 5671 5673 5674 5677 5679 5682 5684
5702 5700 5698 5696 5695 5693 5692 5691 5689 5687 5685 5683 5681 5679 5678 5676 5675 5674 5673 5671 5670 5669 5668 5668 5667 5666 5665 5665 5664 5663 5662 5661 5659 5659 5660 5661 5663 5665 5665 5667 5669 5673 5676
5698 5696 5693 5692 5691 5689 5688 5686 5684 5683 5681 5678 5676 5674 5673 5672 5671 5670 5669 5667 5665 5664 5663 5663 5663 5663 5662 5661 5660 5658 5657 5654 5653 5651 5652 5653 5654 5654 5656 5657 5659 5663 5668
5694 5691 5690 5688 5686 5684 5683 5681 5679 5677 5675 5673 5670 5668 5667 5667 5667 5666 5664 5661 5659 5657 5656 5656 5657 5657 5657 5656 5655 5653 5651 5648 5645 5644 5644 5644 5646 5647 5647 5648 5649 5652 5657
5689 5687 5685 5683 5681 5678 5677 5675 5672 5670 5668 5666 5664 5662 5661 5660 5661 5660 5659 5655 5653 5651 5650 5649 5650 5650 5649 5648 5647 5646 5643 5641 5639 5637 5636 5637 5638 5640 5639 5640 5641 5644 5648
5684 5682 5680 5678 5675 5672 5670 5668 5665 5663 5661 5659 5657 5655 5653 5654 5654 5653 5652 5648 5645 5643 5642 5641 5640 5640 5640 5639 5638 5637 5634 5633 5631 5629 5629 5629 5631 5631 5631 5632 5633 5635 5640
5679 5677 5674 5672 5669 5666 5664 5661 5659 5656 5654 5652 5650 5648 5646 5645 5645 5644 5643 5639 5636 5635 5634 5633 5631 5630 5631 5630 5627 5625 5624 5624 5623 5621 5620 5620 5620 5621 5620 5620 5621 5623 5628
5675 5673 5670 5667 5664 5661 5658 5655 5652 5649 5646 5644 5642 5640 5637 5636 5636 5635 5634 5630 5627 5625 5624 5623 5622 5620 5619 5618 5614 5611 5610 5611 5611 5611 5610 5609 5608 5608 5609 5609 5610 5611 5615
5671 5667 5663 5661 5658 5655 5651 5648 5645 5642 5639 5636 5633 5631 5629 5628 5627 5625 5624 5620 5617 5615 5613 5612 5611 5609 5608 5605 5603 5599 5598 5598 5597 5596 5595 5595 5594 5594 5595 5596 5597 5599 5603
5664 5660 5657 5654 5652 5649 5644 5640 5637 5633 5630 5626 5623 5621 5620 5618 5617 5615 5613 5611 5608 5604 5602 5600 5598 5597 5595 5593 5590 5588 5586 5584 5581 5579 5578 5579 5579 5580 5581 5583 5585 5587 5591
5657 5653 5649 5646 5643 5640 5636 5632 5628 5624 5620 5617 5614 5611 5609 5608 5606 5605 5603 5600 5597 5593 5591 5589 5587 5585 5582 5579 5576 5573 5571 5567 5564 5562 5562 5563 5564 5565 5566 5568 5572 5574 5579
5650 5645 5641 5638 5634 5631 5627 5624 5619 5615 5611 5608 5605 5602 5599 5597 5595 5593 5591 5588 5585 5582 5579 5577 5575 5571 5567 5564 5561 5558 5554 5550 5548 5546 5546 5547 5547 5549 5550 5553 5556 5560 5565
5643 5638 5634 5630 5626 5622 5619 5615 5612 5609 5605 5601 5597 5593 5589 5587 5586 5584 5580 5576 5572 5569 5566 5563 5559 5556 5553 5550 5546 5543 5539 5536 5533 5531 5530 5530 5532 5533 5536 5539 5542 5546 5550
5636 5630 5626 5621 5617 5613 5609 5606 5604 5601 5599 5595 5591 5587 5583 5580 5577 5573 5569 5565 5561 5557 5552 5547 5544 5540 5537 5534 5531 5529 5526 5522 5519 5517 5516 5516 5517 5519 5523 5526 5528 5532 5537
5630 5624 5618 5613 5609 5604 5600 5595 5592 5591 5589 5585 5582 5577 5573 5570 5566 5562 5558 5553 5548 5543 5536 5532 5528 5525 5522 5519 5515 5512 5511 5509 5506 5503 5503 5503 5504 5506 5509 5513 5516 5519 5525
5622 5618 5612 5605 5600 5595 5591 5587 5582 5578 5575 5572 5570 5567 5563 5559 5555 5550 5545 5540 5534 5529 5521 5517 5514 5511 5508 5504 5501 5498 5496 5494 5492 5491 5490 5490 5490 5492 5496 5499 5503 5507 5512
5614 5608 5603 5597 5591 5587 5582 5577 5573 5568 5564 5560 5557 5555 5552 5548 5543 5538 5532 5524 5519 5515 5510 5505 5501 5497 5493 5490 5487 5485 5482 5480 5479 5478 5477 5477 5477 5479 5482 5486 5490 5495 5499
5605 5602 5596 5588 5583 5577 5572 5568 5563 5558 5554 5549 5545 5543 5539 5534 5529 5524 5518 5511 5506 5501 5497 5493 5489 5484 5480 5476 5474 5471 5469 5467 5465 5464 5465 5465 5465 5466 5470 5474 5478 5483 5489
5596 5591 5588 5581 5574 5569 5564 5559 5554 5549 5544 5540 5537 5533 5528 5521 5517 5512 5507 5501 5495 5490 5485 5481 5477 5472 5467 5463 5460 5458 5456 5455 5453 5452 5452 5453 5454 5456 5458 5462 5467 5472 5478
5586 5581 5575 5570 5565 5560 5555 5550 5544 5539 5535 5530 5527 5522 5518 5510 5504 5499 5495 5490 5485 5479 5474 5469 5465 5460 5455 5451 5448 5446 5444 5443 5442 5441 5441 5442 5443 5446 5449 5453 5458 5463 5468
5576 5570 5565 5560 5555 5551 5546 5539 5534 5528 5524 5519 5515 5510 5505 5499 5493 5488 5484 5479 5474 5469 5463 5457 5453 5449 5445 5441 5437 5434 5432 5432 5431 5430 5430 5432 5434 5437 5440 5445 5450 5456 5461
5565 5560 5554 5549 5544 5538 5533 5528 5523 5518 5513 5508 5503 5498 5493 5488 5483 5478 5473 5468 5463 5458 5453 5447 5443 5439 5436 5432 5429 5426 5424 5422 5421 5421 5421 5423 5425 5429 5433 5438 5443 5449 5455
5554 5549 5543 5538 5533 5528 5522 5517 5512 5507 5502 5496 5492 5487 5481 5476 5471 5467 5462 5456 5451 5447 5443 5438 5434 5430 5428 5425 5422 5419 5417 5416 5414 5413 5414 5416 5419 5423 5427 5433 5438 5443 5448
5543 5538 5532 5527 5522 5516 5511 5505 5500 5495 5490 5485 5480 5475 5469 5464 5460 5455 5450 5445 5440 5437 5433 5430 5426 5422 5419 5417 5415 5413 5411 5410 5410 5409 5408 5411 5415 5419 5423 5428 5434 5438 5444